Location: Unspecified
(0.0000°N, 0.0000°E)
Time: 04:15:32
(UTC+00:00)

STARLINK-1053 - Pass Details

Date: 19 January 2020
Orbit: 548 x 551 km, 53.0° (Epoch: 02 December)

Event Time Altitude Azimuth Distance (km) Brightness Sun altitude
Rises 19:04:41 0° 292° (WNW) 2,699 7.9 -12.6°
Reaches altitude 10° 19:07:57 10° 264° (W) 1,811 7.6 -13.4°
Maximum altitude 19:09:56 13° 235° (SW) 1,615 7.2 -13.9°
Drops below altitude 10° 19:11:56 10° 206° (SSW) 1,814 6.9 -14.3°
Sets 19:15:14 0° 178° (S) 2,709 7.4 -15.1°
